Location: Lake Zurich
(42.1970°N, 88.0930°W)
Time: 09:46:18
(UTC-05:00)

Daily predictions for brighter satellites

Satellite Brightness Start Highest point End
(mag) Time Altitude Azimuth Time Altitude Azimuth Time Altitude Azimuth
Cosmos 2263 Rocket 2.7 20:09:21 10° NNW 20:14:41 44° ENE 20:19:58 10° SE
Atlas Centaur 2 3.7 20:10:23 10° SW 20:15:37 26° SSE 20:21:42 10° ESE
Lacrosse 4 Rocket 1.5 20:15:34 10° NNW 20:19:55 85° ENE 20:24:20 10° SSE
Helios 1B rocket 3.1 20:17:29 10° NNE 20:21:15 34° E 20:24:59 10° SSE
Cosmos 2322 Rocket 2.2 20:19:41 10° SSW 20:25:16 74° ESE 20:30:54 10° NNE
ALOS 3.8 20:21:26 10° SSW 20:25:48 39° W 20:30:11 10° NNW
Resurs 01 Rocket 2.0 20:22:29 10° S 20:26:55 70° WSW 20:31:23 10° NNW
USA 267 3.5 20:20:59 10° NE 20:27:32 76° NW 20:34:03 10° WSW
H-2A R/B 3.8 20:25:54 10° S 20:29:40 48° W 20:33:25 10° NNW
Cosmos 1869 3.5 20:27:33 10° SSW 20:31:29 76° W 20:35:27 10° N
SAR-Lupe-4 3.9 20:28:43 10° SSE 20:32:11 49° ENE 20:35:41 10° N
COSMOS 2428 4.3 20:29:52 10° SE 20:32:44 14° E 20:35:38 10° ENE
Cosmos 2360 Rocket 2.8 20:28:48 10° SSE 20:33:48 33° ESE 20:38:49 10° NE
Cosmos 1825 2.1 20:30:00 10° N 20:33:49 76° E 20:37:36 10° SSE
Cosmos 1980 Rocket 4.0 20:29:31 10° WSW 20:34:44 36° WNW 20:39:59 10° N
OAO 3 Rocket 4.1 20:32:10 10° WSW 20:36:34 35° S 20:40:29 13° ESE
Cosmos 1503 Rocket 4.2 20:32:44 10° NNW 20:38:00 76° WSW 20:43:10 10° SSE
Spot 2 Rocket 4.1 20:35:06 10° S 20:40:07 60° WSW 20:45:10 10° NNW
Cosmos 1354 Rocket 4.4 20:38:39 10° NNW 20:43:54 66° WSW 20:49:05 10° S
GENESIS II 4.5 20:40:21 10° SW 20:44:24 76° NW 20:48:29 10° NNE
Cosmos 968 Rocket 4.1 20:39:32 10° N 20:44:26 39° ENE 20:48:27 14° SE
ATLAS 5 CENTAUR R/B 2.6 20:42:18 10° NNW 20:48:12 62° NE 20:53:36 15° SE
Cosmos 2322 4.2 20:43:46 10° S 20:48:59 38° ESE 20:54:13 10° NE
Cosmos 1408 3.0 20:45:25 10° NNW 20:49:04 64° W 20:52:40 10° S
SAR-Lupe-1 4.0 20:45:59 10° SSE 20:49:32 71° ENE 20:53:07 10° N
Cosmos 2026 Rocket 4.2 20:47:49 10° N 20:54:03 76° W 21:00:09 10° S
SL-16 R/B 2.7 20:49:37 10° SSW 20:55:15 66° WNW 21:00:56 10° NNE
Meteor 1-29 2.9 20:52:21 10° NNE 20:55:50 70° ESE 20:59:15 10° S
Cosmos 1867 3.8 20:51:58 10° NNW 20:57:22 58° NE 21:01:17 18° SE
ARGOS 4.4 20:56:21 16° ESE 20:59:22 25° ENE 21:03:41 10° N
Cosmos 1733 Rocket 3.2 20:55:30 10° N 20:59:57 78° W 21:04:24 10° S
Envisat 3.0 20:55:08 10° SSE 21:00:13 88° W 21:05:20 10° NNW
H-2A R/B 3.8 20:59:46 12° E 21:01:50 15° ENE 21:04:39 10° NNE
USA 234 3.4 20:56:41 16° ESE 21:02:06 73° NE 21:08:38 10° NW
Cosmos 1933 3.4 21:04:20 10° S 21:08:22 79° W 21:12:24 10° N
Okean 2 Rocket 4.4 21:04:54 10° NNE 21:08:37 24° ENE 21:10:03 21° ESE
Abrixas rocket 4.2 21:06:20 10° WNW 21:09:11 26° N 21:12:02 10° ENE
Cosmos 1862 Rocket 3.8 21:05:06 10° SSW 21:09:33 73° W 21:14:03 10° N
Okean 1-7 4.0 21:08:38 23° ESE 21:10:04 28° E 21:13:50 10° NNE
Helios 1A 3.8 21:06:48 10° S 21:10:55 51° W 21:15:06 10° NNW
Cosmos 2333 Rocket 4.0 21:13:24 13° E 21:13:24 13° E 21:15:17 10° ENE
Cosmos 2278 Rocket 4.2 21:11:27 10° N 21:14:44 15° NE 21:17:43 11° E
USA 186 4.2 21:13:22 10° SW 21:15:26 19° W 21:17:36 10° NW
Cosmos 1844 Rocket 3.7 21:11:36 10° N 21:16:35 32° NE 21:19:16 21° E
CZ-4B DEB 3.8 21:16:48 13° SSW 21:19:14 41° W 21:22:08 10° NNW
YAOGAN 6 2.5 21:21:30 27° SSE 21:23:21 86° ENE 21:26:59 10° N
ERS-1 Rocket 2.9 21:22:03 22° SSE 21:25:19 77° ENE 21:30:21 10° N
MetOp-A 4.3 21:25:28 26° SE 21:28:22 59° ENE 21:33:38 10° N
Milstar 3 4.2 21:23:23 10° WSW 21:28:59 21° SSW 21:31:42 17° SSE
SeaSat 1 3.3 21:27:56 25° E 21:29:58 35° NE 21:34:27 10° N
Cosmos 1703 Rocket 3.5 21:27:00 19° S 21:30:04 71° E 21:34:29 10° NNE
Cosmos 1782 3.8 21:36:14 30° E 21:36:14 30° E 21:39:26 10° NNE
Cosmos 2219 Rocket 3.0 21:37:35 29° ESE 21:37:35 29° ESE 21:42:19 10° NE
Meteor 2-10 Rocket 4.0 21:33:24 10° SSW 21:39:12 71° W 21:44:59 10° N
Meteor 1-26 Rocket 4.3 21:35:34 10° SSW 21:41:16 80° W 21:47:06 10° N
Cosmos 2266 Rocket 4.0 21:36:34 10° N 21:42:54 90° WSW 21:47:07 23° S
NOSS 3-1 (C) 3.8 21:42:31 34° SE 21:43:20 35° ESE 21:48:58 10° NE
Cosmos 1939 Rocket 4.5 21:40:33 11° SSW 21:43:59 31° W 21:47:34 10° NNW
USA 229 DEB 3.6 21:41:49 10° SSW 21:48:40 90° ENE 21:55:39 10° NE
YAOGAN 11 4.0 21:47:26 45° SSE 21:48:45 82° ENE 21:53:06 10° NNW
USA 229 3.6 21:41:56 10° SSW 21:48:46 89° ESE 21:55:45 10° NE
SPOT 1/Viking Rocket 3.9 21:47:41 38° ESE 21:49:11 49° ENE 21:54:12 10° N
Cosmos 2221 Rocket 3.5 21:48:15 33° S 21:50:11 87° E 21:54:39 10° N
SPOT 5 2.7 21:50:39 44° SE 21:52:05 72° ENE 21:56:41 10° N
Cosmos 1777 Rocket 3.9 21:51:06 10° NNW 21:56:25 83° ENE 21:58:03 46° SSE
Cosmos 2263 Rocket 3.9 21:53:45 10° NW 21:58:20 27° WSW 22:02:37 11° SSW
NOSS 3-1 (A) 4.1 22:00:30 32° E 22:00:30 32° E 22:05:03 10° NE
ASTEX 1 4.3 22:02:21 33° E 22:02:30 33° ENE 22:06:56 10° NNE
Atlas Centaur 2 3.5 21:57:58 10° WSW 22:04:17 34° S 22:05:12 33° SSE
Cosmos 1633 4.0 22:02:24 10° N 22:04:45 28° NE 22:04:45 28° NE
Cosmos 2237 4.4 22:01:16 10° SSW 22:06:59 73° WNW 22:12:44 10° NNE
SL-08 RB Rocket 3.6 22:07:29 64° SE 22:08:09 81° ENE 22:12:43 10° N
Cosmos 1244 Rocket 4.5 22:02:23 10° N 22:08:39 68° E 22:10:33 46° SE
H-2A R/B 2.8 22:14:15 39° ENE 22:14:15 39° ENE 22:17:58 10° N
Meteor 1-10 Rocket 4.2 22:12:10 45° S 22:14:02 74° E 22:19:54 10° NNE
MOS 1-B Rocket 3.9 22:12:56 42° S 22:15:04 81° WSW 22:20:42 10° NNW
COSMOS 2428 2.7 22:10:54 12° SSW 22:16:14 80° WNW 22:21:58 10° NNE
Cosmos 2360 Rocket 3.7 22:12:31 10° SW 22:17:42 37° WNW 22:22:57 10° N
Cosmos 1553 Rocket 4.2 22:17:12 47° ESE 22:18:02 51° E 22:24:01 10° NNE
Meteor 1-11 Rocket 4.0 22:12:44 10° N 22:18:04 46° ENE 22:18:30 45° E
CZ-4C R/B 3.3 22:14:48 10° NNW 22:21:38 50° NE 22:24:27 35° E
Landsat 7 3.7 22:25:08 69° E 22:25:12 69° ENE 22:29:56 10° N
Cosmos 1980 4.2 22:28:48 42° ENE 22:28:48 42° ENE 22:33:11 10° NE
Cosmos 1844 3.5 22:23:24 10° NNW 22:29:06 88° ENE 22:29:52 68° SSE
Cosmos 1606 3.4 22:31:23 50° NNW 22:31:23 50° NNW 22:34:21 10° N
ATLAS 5 CENTAUR R/B 3.9 22:27:39 10° WNW 22:32:41 27° WSW 22:35:10 21° SSW
SL-16 R/B 4.2 22:36:36 14° ENE 22:36:36 14° ENE 22:37:51 10° NE
SL-19 R/B 4.4 22:28:51 10° NNE 22:34:48 58° E 22:34:49 58° ESE
Cosmos 1300 Rocket 4.4 22:33:17 10° N 22:36:30 41° NE 22:36:30 41° NE
Cosmos 1536 4.5 22:34:44 10° N 22:36:59 26° NNE 22:36:59 26° NNE
ARGOS 3.9 22:37:51 36° SW 22:39:20 45° W 22:44:29 10° NNW
Terra 2.0 22:40:44 64° NE 22:40:44 64° NE 22:45:04 10° N
H-2A R/B 2.0 22:40:23 66° SW 22:40:42 68° WSW 22:45:39 10° NNW
USA 234 4.2 22:44:02 30° SSW 22:45:25 33° SW 22:51:12 10° WNW
S3M 3.8 22:47:55 71° SSE 22:48:37 83° E 22:54:50 10° N
DMSP B5D2-2 4.0 22:45:01 10° NNE 22:50:19 88° WNW 22:50:21 88° WSW
Cosmos 2237 Rocket 2.3 22:55:50 65° ENE 22:55:50 65° ENE 23:00:49 10° NNE
Cosmos 2333 Rocket 2.2 22:55:19 72° SW 22:55:54 82° WNW 23:01:43 10° NNE
Cosmos 1570 Rocket 4.4 22:57:59 53° WSW 22:58:46 59° WNW 23:04:00 10° NNE
Gbstr 26 Del rocket 4.4 22:59:24 61° SE 22:59:28 61° SE 23:07:26 10° ENE
Cosmos 2278 Rocket 2.1 22:54:00 10° NNW 22:59:34 84° NNE 22:59:34 84° NNE
Cosmos 1844 Rocket 3.5 22:55:23 10° NW 23:00:30 38° WSW 23:00:56 38° WSW
Meteor 2-11 Rocket 4.3 23:06:13 85° SSW 23:06:25 89° W 23:12:33 10° N
SeaSat 1 3.7 23:07:43 32° WSW 23:07:43 32° WSW 23:11:54 10° NW
CZ-4 R/B 4.5 23:02:47 10° NNE 23:06:24 52° NNE 23:06:24 52° NNE
Cosmos 1937 Rocket 4.0 23:04:57 10° NNW 23:09:20 51° NNE 23:09:20 51° NNE
Meteor 1-5 Rocket 4.3 23:15:17 10° N 23:20:26 74° N 23:20:26 74° N
Cosmos 2219 Rocket 3.2 23:19:11 30° WSW 23:21:18 42° WNW 23:26:39 10° NNE
Cosmos 1745 Rocket 4.2 23:15:18 10° NNW 23:21:33 63° W 23:22:00 61° WSW
Cosmos 2150 Rocket 4.4 23:17:38 10° NNW 23:22:15 63° N 23:22:15 63° N
Cosmos 2285 Rocket 4.3 23:30:59 57° ENE 23:30:59 57° ENE 23:36:16 10° NNE
Cosmos 1898 Rocket 4.2 23:28:23 10° NNW 23:32:21 50° NW 23:32:21 50° NW
NOSS 3-1 (C) 4.4 23:29:42 17° WSW 23:34:01 43° NW 23:40:17 10° NNE
ATLAS CENTAUR R/B 4.2 23:39:05 11° NE 23:39:05 11° NE 23:39:14 10° NE
CZ-2C R/B 4.4 23:45:52 29° NE 23:45:52 29° NE 23:48:56 10° N
NOSS 3-1 (A) 4.3 23:47:48 31° W 23:50:08 45° NW 23:56:28 10° NNE
ATLAS 2AS CENTAUR R/B 3.3 23:52:16 52° E 23:52:16 52° E 23:58:57 10° NE
Cosmos 2369 Rocket 4.0 23:51:01 10° N 23:55:15 21° NE 23:55:45 21° ENE
